Location: Ash Observatory
(39.7321°N, 75.2004°W)
Time: 15:24:17
(UTC-04:00)

ISS - Pass Details

Date: 26 May 2019
Orbit: 408 x 418 km, 51.6° (Epoch: 19 June)

Event Time Altitude Azimuth Distance (km) Brightness Sun altitude
Rises 22:45:57 0° 313° (NW) 2,358 1.4 -21.7°
Reaches altitude 10° 22:48:53 10° 341° (NNW) 1,497 0.1 -22.0°
Maximum altitude 22:50:40 14° 13° (NNE) 1,298 -0.7 -22.2°
Drops below altitude 10° 22:52:27 10° 46° (NE) 1,498 -0.8 -22.4°
Enters shadow 22:52:47 - 50° (NE) 1,571 -0.8 -22.4°
